PA1CG-7 Weather Reports


time (UTC)temp
F
wind
direction
speed
knots
gust
knots
rain 1hr
in
rain 24hr
in
rain mn
in
humidity
%
barometer
mb
20260507103216 61 225 2.6 4.3 0.00 0.00 0.00 60 1016.5
20260507102216 61 248 1.7 6.1 0.00 0.00 0.00 61 1016.5
20260507101216 61 315 1.7 5.2 0.00 0.00 0.00 61 1016.5
20260507100216 61 270 4.3 7.8 0.00 0.00 0.00 61 1016.5
20260507095216 60 270 3.5 7.0 0.00 0.00 0.00 61 1016.4
20260507094216 60 315 0.9 2.6 0.00 0.00 0.00 61 1016.4
20260507093215 60 248 4.3 7.8 0.00 0.00 0.00 60 1016.2
20260507092215 61 315 4.3 8.7 0.00 0.00 0.00 60 1016.2
20260507091216 60 225 2.6 5.2 0.00 0.00 0.00 60 1016.1
20260507090216 60 0.0 0.9 0.00 0.00 0.00 59 1016.1
20260507085216 59 315 1.7 3.5 0.00 0.00 0.00 56 1016.1
20260507084216 59 0 6.1 9.6 0.00 0.00 0.00 58 1016.0
20260507083216 58 315 2.6 3.5 0.00 0.00 0.00 58 1016.1
20260507082215 58 0 2.6 5.2 0.00 0.00 0.00 61 1016.1
20260507081215 57 0 3.5 6.1 0.00 0.00 0.00 61 1016.1
20260507080215 57 293 3.5 4.3 0.00 0.00 0.00 62 1016.0
20260507075215 56 338 2.6 4.3 0.00 0.00 0.00 63 1016.0
20260507074215 56 338 2.6 3.5 0.00 0.00 0.00 66 1015.9
20260507073216 55 0 0.9 3.5 0.00 0.00 0.00 67 1015.8
20260507072216 54 0 2.6 4.3 0.00 0.00 0.00 68 1015.9
20260507071215 54 293 3.5 6.1 0.00 0.00 0.00 69 1015.8
20260507070215 53 315 3.5 5.2 0.00 0.00 0.00 71 1015.8
20260507065216 53 315 3.5 5.2 0.00 0.00 0.00 74 1015.8
20260507064215 52 315 3.5 4.3 0.00 0.00 0.00 77 1015.8
20260507063215 51 0 4.3 6.1 0.00 0.00 0.00 78 1015.8
20260507062215 51 0 3.5 5.2 0.00 0.00 0.00 79 1015.8
20260507061215 50 0 3.5 5.2 0.00 0.00 0.00 80 1015.8
20260507060217 49 315 2.6 4.3 0.00 0.00 0.00 81 1015.7
20260507055218 48 315 1.7 4.3 0.00 0.00 0.00 82 1015.7
20260507054217 47 338 1.7 4.3 0.00 0.00 0.00 83 1015.5
20260507053218 47 0.0 0.0 0.00 0.00 0.00 84 1015.4
20260507052218 46 338 0.9 2.6 0.00 0.00 0.00 85 1015.3
20260507051218 46 338 1.7 3.5 0.00 0.00 0.00 85 1015.3
20260507050217 46 315 0.9 1.7 0.00 0.00 0.00 84 1015.2
20260507045217 46 315 0.9 1.7 0.00 0.00 0.00 84 1015.0
20260507044217 45 0.0 0.0 0.00 0.00 0.00 84 1014.9
20260507043217 46 0.0 0.0 0.00 0.00 0.00 84 1014.9
20260507042217 46 0.0 0.9 0.00 0.00 0.00 84 1014.8
20260507041215 46 315 1.7 1.7 0.00 0.00 0.00 84 1014.8
20260507040217 46 315 0.9 1.7 0.00 0.00 0.00 84 1014.7
20260507035217 46 315 0.9 1.7 0.00 0.00 0.00 84 1014.6
20260507034217 46 315 0.9 1.7 0.00 0.00 0.00 84 1014.6
20260507033217 46 315 0.9 2.6 0.00 0.00 0.00 84 1014.6
20260507032217 46 0.0 0.9 0.00 0.00 0.00 84 1014.5
20260507031217 46 315 0.9 2.6 0.00 0.00 0.00 84 1014.5
20260507030217 46 338 1.7 4.3 0.00 0.00 0.00 84 1014.4
20260507025217 47 315 0.9 2.6 0.00 0.00 0.00 84 1014.4
20260507024217 47 315 1.7 2.6 0.00 0.00 0.00 84 1014.3
20260507023217 47 293 2.6 4.3 0.00 0.00 0.00 83 1014.4
20260507022217 47 315 1.7 2.6 0.00 0.00 0.00 83 1014.3
20260507021217 47 315 2.6 3.5 0.00 0.00 0.00 83 1014.2
20260507020217 47 315 1.7 3.5 0.00 0.00 0.00 83 1014.1
20260507015217 47 315 1.7 2.6 0.00 0.00 0.00 83 1014.1
20260507014217 47 315 3.5 5.2 0.00 0.00 0.00 83 1014.0
20260507013217 47 315 3.5 5.2 0.00 0.00 0.00 83 1014.0
20260507012217 47 338 2.6 3.5 0.00 0.00 0.00 83 1014.0
20260507011217 48 315 0.9 3.5 0.00 0.00 0.00 83 1014.0
20260507010216 48 315 2.6 4.3 0.00 0.00 0.00 82 1013.9
20260507005217 48 315 1.7 4.3 0.00 0.00 0.00 82 1013.9
20260507004217 48 0 2.6 5.2 0.00 0.00 0.00 82 1013.9
20260507003216 48 315 2.6 4.3 0.00 0.00 0.00 82 1013.9
20260507002216 49 293 2.6 4.3 0.00 0.00 0.00 82 1013.8
20260507001217 49 338 1.7 1.7 0.00 0.00 0.00 81 1013.7
20260507000219 49 315 3.5 4.3 0.00 0.00 0.00 81 1013.7
20260506235217 49 338 3.5 5.2 0.00 0.00 0.00 81 1013.7
20260506234216 50 338 2.6 4.3 0.00 0.00 0.00 80 1013.8
20260506233216 50 293 1.7 3.5 0.00 0.00 0.00 79 1013.6
20260506232216 50 315 2.6 4.3 0.00 0.00 0.00 79 1013.6
20260506231216 50 338 5.2 7.8 0.00 0.00 0.00 78 1013.6
20260506230216 50 315 4.3 7.0 0.00 0.00 0.00 77 1013.5
20260506225216 51 293 4.3 7.8 0.00 0.00 0.00 76 1013.5
20260506224216 51 315 4.3 7.0 0.00 0.00 0.00 75 1013.5
20260506223216 51 338 4.3 6.1 0.00 0.00 0.00 75 1013.4
20260506222217 51 0 4.3 6.1 0.00 0.00 0.00 74 1013.4
20260506221216 51 315 2.6 6.1 0.00 0.00 0.00 73 1013.3
20260506220216 52 293 2.6 4.3 0.00 0.00 0.00 72 1013.3
20260506215216 52 315 1.7 2.6 0.00 0.00 0.00 71 1013.2
20260506214216 52 338 2.6 4.3 0.00 0.00 0.00 71 1013.1
20260506213215 52 315 4.3 6.1 0.00 0.00 0.00 70 1013.1
20260506212215 53 315 4.3 6.1 0.00 0.00 0.00 69 1013.0
20260506211215 53 338 4.3 7.0 0.00 0.00 0.00 69 1012.9
20260506210215 53 338 1.7 2.6 0.00 0.00 0.00 68 1012.8
20260506205215 53 0 3.5 6.1 0.00 0.00 0.00 67 1012.8
20260506204215 54 315 1.7 3.5 0.00 0.00 0.00 66 1012.7
20260506203215 54 0 1.7 2.6 0.00 0.00 0.00 65 1012.6
20260506202216 55 0 0.9 2.6 0.00 0.00 0.00 65 1012.5
20260506201215 55 338 4.3 6.1 0.00 0.00 0.00 64 1012.4
20260506200216 55 338 6.1 10.4 0.00 0.00 0.00 64 1012.4
20260506195215 56 0 5.2 7.0 0.00 0.00 0.00 64 1012.2
20260506194215 56 338 4.3 7.0 0.00 0.00 0.00 65 1012.1
20260506193215 56 338 4.3 7.0 0.00 0.00 0.00 65 1012.0
20260506192216 56 315 1.7 3.5 0.00 0.00 0.00 65 1011.8
20260506191215 56 338 5.2 7.8 0.00 0.00 0.00 66 1011.8
20260506190216 57 338 4.3 6.1 0.00 0.00 0.00 65 1011.6
20260506185215 57 315 3.5 7.0 0.00 0.00 0.00 64 1011.5
20260506184217 57 338 1.7 3.5 0.00 0.00 0.00 63 1011.3
20260506183217 57 0 2.6 6.1 0.00 0.00 0.00 63 1011.3
20260506182217 57 315 2.6 3.5 0.00 0.00 0.00 65 1011.1
20260506181217 57 338 3.5 7.0 0.00 0.00 0.00 66 1011.0
20260506180217 57 293 3.5 5.2 0.00 0.00 0.00 68 1010.9
20260506175217 57 315 5.2 8.7 0.00 0.00 0.00 68 1010.9
20260506174217 57 293 6.1 8.7 0.00 0.00 0.00 68 1010.7
20260506173217 57 315 6.1 9.6 0.00 0.00 0.00 69 1010.6
20260506172217 57 315 6.1 8.7 0.00 0.00 0.00 70 1010.6
20260506171217 57 315 4.3 7.0 0.00 0.00 0.00 70 1010.4
20260506170217 57 293 7.0 9.6 0.00 0.00 0.00 69 1010.3
20260506165217 57 338 4.3 6.1 0.00 0.00 0.00 69 1010.3
20260506164217 57 315 6.1 9.6 0.00 0.00 0.00 69 1010.3
20260506163217 57 293 7.0 11.3 0.00 0.00 0.00 70 1010.2
20260506162217 57 293 7.0 12.2 0.00 0.00 0.00 70 1010.2
20260506161217 57 315 6.1 9.6 0.00 0.00 0.00 69 1010.2
20260506160217 58 315 8.7 12.2 0.00 0.00 0.00 68 1010.2
20260506155217 58 315 2.6 4.3 0.00 0.00 0.00 67 1010.1
20260506154217 58 293 7.8 11.3 0.00 0.00 0.00 67 1010.2
20260506153217 58 338 7.0 10.4 0.00 0.00 0.00 66 1010.1
20260506152217 58 315 10.4 17.4 0.00 0.00 0.00 66 1010.1
20260506151217 59 315 9.6 15.6 0.00 0.00 0.00 65 1010.1
20260506150217 59 315 8.7 14.8 0.00 0.00 0.00 66 1010.1
20260506145217 59 315 8.7 16.5 0.00 0.00 0.00 64 1010.0
20260506144217 60 315 7.0 12.2 0.00 0.00 0.00 64 1009.9
20260506143217 59 315 8.7 11.3 0.00 0.00 0.00 65 1010.0
20260506142217 59 315 5.2 9.6 0.00 0.00 0.00 66 1010.0
20260506141217 59 293 7.8 13.9 0.00 0.00 0.00 67 1010.1
20260506140217 61 315 13.9 18.2 0.00 0.00 0.00 65 1010.1
20260506135217 61 315 12.2 20.0 0.00 0.00 0.00 66 1010.1
20260506134216 61 315 9.6 18.2 0.00 0.00 0.00 67 1010.0
20260506133217 60 338 4.3 7.8 0.00 0.00 0.00 67 1010.0
20260506132217 60 315 9.6 14.8 0.00 0.00 0.00 67 1010.0
20260506131217 59 315 7.0 12.2 0.00 0.00 0.00 70 1010.0
20260506130217 58 315 5.2 8.7 0.00 0.00 0.00 71 1009.9
20260506125217 58 315 7.8 13.0 0.00 0.00 0.00 69 1009.9
20260506124216 59 315 9.6 13.9 0.00 0.00 0.00 69 1009.9
20260506123216 59 315 8.7 11.3 0.00 0.00 0.00 67 1009.8
20260506122216 59 315 10.4 14.8 0.00 0.00 0.00 66 1009.8
20260506121216 59 315 4.3 7.8 0.00 0.00 0.00 67 1009.7
20260506120216 59 315 6.1 12.2 0.00 0.00 0.00 68 1009.6
20260506115217 59 293 5.2 7.8 0.00 0.00 0.00 68 1009.6
20260506114216 58 293 6.1 8.7 0.00 0.00 0.00 67 1009.7
20260506113216 58 315 5.2 7.0 0.00 0.00 0.00 68 1009.7
20260506112217 58 315 7.8 10.4 0.00 0.00 0.00 69 1009.7
20260506111216 58 315 7.0 13.0 0.00 0.00 0.00 69 1009.7
20260506110216 59 315 10.4 14.8 0.00 0.00 0.00 68 1009.7
20260506105216 59 293 7.8 10.4 0.00 0.00 0.00 69 1009.6
20260506104216 59 315 5.2 7.8 0.00 0.00 0.00 70 1009.6